Home   Weather   Leicester   Past weeks

Flag for United Kingdom Past Weather in Leicester, England, United Kingdom — Yesterday and Last 2 Weeks

50 °F

Passing clouds.

Feels Like: 47 °F
Forecast: 45 / 53 °F
Wind: 7 mph from East

Location: East Midlands

Current Time: Oct 23, 2016 at 5:15:22 PM

Latest Report: Oct 23, 2016 at 4:50 PM

Visibility: N/A

Pressure: 29.89 "Hg

Humidity: 76%

Dew Point: 43 °F

Location of LeicesterLocation

Past Weather in Leicester — Graph


Leicester Temperature Yesterday

Maximum temperature yesterday: 54 °F (at 2:50 PM)
Minimum temperature yesterday: 41 °F (at 1:50 AM)
Average temperature yesterday: 46 °F

High & Low Weather Summary for the Past Weeks

High61 °F (Oct 16, 1:50 PM)100% (Oct 9, 3:20 AM)30.42 "Hg (Oct 9, 3:20 AM)
Low39 °F (Oct 10, 5:20 AM)58% (Oct 18, 1:50 PM)29.65 "Hg (Oct 15, 3:50 AM)
Average50 °F86%30.07 "Hg
* Reported Oct 8 4:20 PM — Oct 23 4:20 PM, Leicester, Weather by CustomWeather, © 2016

Note: Actual official high and low records may vary slightly from our data, if they occured in-between our weather recording intervals... More about our weather records


Leicester Weather History for the Previous 24 Hours

Scroll right to see more
Time TempWeatherWind HumidityBarometerVisibility
4:20 PM
Sun, Oct 23
50 °FPartly sunny.10 mph76%29.89 "HgN/A
3:50 PM50 °FPartly sunny.13 mph71%29.89 "HgN/A
3:20 PM50 °FBroken clouds.12 mph76%29.89 "HgN/A
2:50 PM50 °FPartly sunny.10 mph71%29.92 "HgN/A
2:20 PM52 °FScattered clouds.13 mph67%29.89 "HgN/A
1:50 PM50 °FScattered clouds.13 mph71%29.92 "HgN/A
1:20 PM52 °FScattered clouds.14 mph72%29.92 "HgN/A
12:50 PM52 °FScattered clouds.15 mph72%29.92 "HgN/A
11:50 AM50 °FScattered clouds.15 mph76%29.95 "HgN/A
11:20 AM48 °FPartly sunny.14 mph82%29.95 "HgN/A
10:50 AM48 °FPartly sunny.10 mph82%29.95 "HgN/A
10:20 AM48 °FPartly sunny.13 mph82%29.95 "HgN/A
9:50 AM46 °FPartly sunny.12 mph93%29.95 "HgN/A
9:20 AM46 °FLight rain. Partly sunny.12 mph93%29.95 "HgN/A
8:50 AM46 °FPartly sunny.12 mph93%29.95 "HgN/A
8:20 AM46 °FScattered clouds.12 mph93%29.95 "HgN/A
7:50 AM46 °FPartly sunny.13 mph93%29.95 "HgN/A
7:20 AM46 °FPassing clouds.10 mph93%29.95 "HgN/A
6:50 AM46 °FPassing clouds.10 mph100%29.95 "HgN/A
6:20 AM45 °FPassing clouds.5 mph100%29.95 "Hg5 mi
5:50 AM43 °FPassing clouds.6 mph100%29.95 "Hg4 mi
5:20 AM43 °FPassing clouds.3 mph100%29.95 "Hg4 mi
4:50 AM43 °FPassing clouds.6 mph100%29.95 "Hg4 mi
4:20 AM43 °FMostly cloudy.5 mph100%29.95 "Hg5 mi
3:50 AM43 °FPassing clouds.5 mph93%29.95 "Hg4 mi
3:20 AM41 °FClear.5 mph100%29.95 "Hg5 mi
2:50 AM41 °FClear.5 mph100%29.98 "Hg6 mi
2:20 AM43 °FClear.5 mph93%29.98 "Hg10 mi
1:50 AM43 °FPassing clouds.5 mph93%29.98 "HgN/A
1:20 AM43 °FPassing clouds.5 mph93%29.98 "HgN/A
12:50 AM41 °FPassing clouds.2 mph100%29.98 "HgN/A
12:20 AM43 °FPassing clouds.2 mph93%30.01 "HgN/A
11:50 PM
Sat, Oct 22
43 °FPassing clouds.3 mph93%30.01 "HgN/A
11:20 PM43 °FPassing clouds.3 mph93%30.01 "HgN/A
10:50 PM45 °FPassing clouds.3 mph93%30.01 "HgN/A
10:20 PM43 °FPassing clouds.3 mph93%30.01 "HgN/A
9:50 PM45 °FPassing clouds.3 mph93%30.01 "HgN/A
9:20 PM43 °FPassing clouds.3 mph93%30.01 "HgN/A
8:50 PM43 °FPassing clouds.3 mph93%30.04 "HgN/A
8:20 PM45 °FClear.5 mph93%30.04 "Hg10 mi
7:50 PM46 °FClear.6 mph87%30.04 "Hg10 mi
7:20 PM46 °FClear.8 mph87%30.04 "Hg10 mi
6:50 PM46 °FClear.7 mph87%30.04 "Hg10 mi
6:20 PM46 °FClear.6 mph87%30.04 "Hg10 mi
5:50 PM48 °FPassing clouds.7 mph82%30.01 "HgN/A
5:20 PM50 °FScattered clouds.6 mph82%30.01 "HgN/A
Weather by CustomWeather, © 2016

See weather overviewHow to use our weather pages